{"data":{"norad_id":66168,"intl_designator":"2025-240Y","name":"STARLINK-35578","alt_names":[],"object_type":"PAYLOAD","status":"ACTIVE","operator":null,"country":"US","launch_date":"2025-10-25","launch_site_code":"AFWTR","launch_vehicle":null,"mission":null,"orbit_class":"UNKNOWN","rcs_meters":null,"size_class":null,"mass_kg":null,"dimensions":null,"purposes":["comms"],"wikipedia_slug":null,"has_3d_model":false,"image_url":null,"decayed_at":null,"tle_current":{"epoch":"2026-09-20T07:51:04.749984Z","epoch_age_seconds":115363,"freshness":"FRESH","line1":"1 66168U 25240Y   26263.32713831  .00017289  00000+0  52161-3 0  9991","line2":"2 66168  53.1573 236.2246 0001390  97.3141 262.8019 15.34402091 51829","mean_motion":15.34402091,"eccentricity":0.000139,"inclination_deg":53.1573,"raan_deg":236.2246,"arg_perigee_deg":97.3141,"mean_anomaly_deg":262.8019,"bstar":0.00052161,"rev_number":5182,"period_min":93.847630190697,"perigee_km":461.74614939199,"apogee_km":463.64790125102,"semimajor_km":6840.8340253215,"source":"CELESTRAK","updated_at":"2026-09-21T09:00:35.831864Z"}}}